Hourly Data Report for September 18, 2017

All times are specified in Local Standard Time (LST). Add 1 hour to adjust for Daylight Saving Time where and when it is observed.

NAPPAN AUTO
NOVA SCOTIA

45°45'34.400" N
64°14'29.200" W
19.80 m
8203702
71311
XNP

Download Data

Hourly Data (September 2017)
Hourly Data Report for September 18, 2017
Temp Definition
°C
Dew Point Temp Definition
°C
Rel Hum Definition
%
Wind Dir Definition
10's deg

Wind Spd Definition
km/h
Visibility Definition
km
Stn Press Definition
kPa
Hmdx Definition


Wind Chill Definition


Weather Definition


TIME
00:00 16.1 15.8 98 19 7   102.02     LegendNANA
01:00 16.3 15.6 96 20 8   102.02     LegendNANA
02:00 15.3 14.8 97 28 9   102.03     LegendNANA
03:00 15.0 14.6 98 24 4   102.03     LegendNANA
04:00 15.1 14.7 98 29 3   102.05     LegendNANA
05:00 15.1 14.8 98   0   102.08     LegendNANA
06:00 15.2 14.9 98 0 1   102.12     LegendNANA
07:00 15.6 15.3 98 21 2   102.15     LegendNANA
08:00 16.2 15.9 98 12 1   102.20     LegendNANA
09:00 16.7 16.3 97 17 3   102.22     LegendNANA
10:00 18.2 16.6 91 27 5   102.22     LegendNANA
11:00 18.8 16.6 87 30 5   102.22     LegendNANA
12:00 19.4 17.3 88 30 7   102.21     LegendNANA
13:00 19.7 17.0 85 28 6   102.20     LegendNANA
14:00 21.9 17.8 78 22 12   102.15 28   LegendNANA
15:00 22.3 18.1 77 19 7   102.14 28   LegendNANA
16:00 21.4 17.6 79 26 10   102.17 27   LegendNANA
17:00 21.4 17.6 79 20 16   102.21 27   LegendNANA
18:00 20.0 17.1 83 19 7   102.23 25   LegendNANA
19:00 19.3 16.9 86 19 16   102.24     LegendNANA
20:00 18.7 16.6 88 18 14   102.29     LegendNANA
21:00 18.4 16.4 88 16 11   102.29     LegendNANA
22:00 17.6 16.3 92 17 13   102.30     LegendNANA
23:00 17.4 16.2 93 17 9   102.29     LegendNANA

Notes on Data Quality.

Legend

  • E = Estimated
  • M = Missing
  • NA = Not Available
  • ‡ = Partner data that is not subject to review by the National Climate Archives
Date modified: